Location: East Farmingdale
(40.7293°N, 73.4168°W)
Time: 00:25:55
(UTC+00:00)

Daily predictions for brighter satellites

Satellite Brightness Start Highest point End
(mag) Time Altitude Azimuth Time Altitude Azimuth Time Altitude Azimuth
NOSS 3-2 (C) 4.3 00:35:19 10° NW 00:43:05 88° WSW 00:51:52 10° SSE
Meteor 1-10 Rocket 4.3 00:37:53 10° S 00:43:18 59° E 00:48:49 10° NNE
Cosmos 1633 Rocket 3.3 00:39:33 10° N 00:43:50 53° E 00:48:05 10° SSE
CENTAUR R/B 3.8 00:39:54 10° NW 00:48:12 60° WSW 00:57:02 10° SSE
Okean O Rocket 4.4 00:47:53 10° SW 00:50:33 16° W 00:53:14 10° NW
Sich 1 4.1 00:46:29 10° NNW 00:50:42 48° W 00:54:50 10° SSW
Cosmos 1743 4.0 00:48:55 10° NNE 00:51:59 23° ENE 00:55:02 10° SE
Meteor 1-27 Rocket 4.2 00:47:07 10° SSE 00:52:32 44° E 00:58:04 10° NNE
Cosmos 2344 3.7 00:47:00 10° S 00:54:28 51° ESE 01:01:35 10° NE
Cosmos 1470 Rocket 4.1 00:51:18 10° N 00:55:23 40° ENE 00:59:27 10° SSE
Tsikada Rocket 4.5 00:49:18 10° NNW 00:55:32 66° W 01:01:39 10° S
Cosmos 44 4.4 00:52:41 10° NW 00:56:36 34° WSW 01:00:32 10° S
Cosmos 2208 Rocket 4.1 00:51:46 10° NNW 00:57:14 88° WSW 01:02:36 10° SSE
OAO 3 Rocket 3.8 00:54:33 10° WSW 00:59:11 42° S 01:03:46 10° ESE
Cosmos 2219 3.3 00:53:42 10° NNW 00:59:19 66° ENE 01:04:53 10° SSE
USA 238 DEB 4.2 00:55:50 10° NW 01:03:10 70° WSW 01:10:50 10° SSE
USA 238 4.2 00:55:57 10° NW 01:03:17 70° WSW 01:10:58 10° SSE
Ariane Rocket 3.6 01:00:43 10° SE 01:05:25 40° ENE 01:10:10 10° N
Cosmos 2082 4.4 01:00:37 10° N 01:05:53 39° ENE 01:10:38 12° SE
Resurs 01 Rocket 2.0 01:02:04 10° SSE 01:06:18 49° ENE 01:10:34 10° N
Cosmos 1515 Rocket 3.7 01:02:48 10° S 01:07:00 51° E 01:11:17 10° NNE
Cosmos 2263 Rocket 3.8 01:03:57 10° N 01:08:11 21° NE 01:12:23 10° ESE
Terra 4.0 01:07:49 10° ENE 01:08:47 11° ENE 01:09:45 10° NE
Meteor 1-11 Rocket 3.9 01:03:25 10° N 01:09:24 69° E 01:15:16 10° SSE
Cosmos 921 Rocket 4.2 01:08:49 10° N 01:12:50 30° ENE 01:16:00 14° ESE
PSLV R/B 3.8 01:09:24 10° NNE 01:13:27 81° ESE 01:17:28 10° S
IGS 5A 4.0 01:09:35 10° S 01:13:40 58° W 01:17:47 10° NNW
Landsat 7 3.9 01:10:26 10° SSE 01:15:09 83° WSW 01:19:53 10° NNW
ISS -1.3 01:13:59 10° NNW 01:16:18 17° NNE 01:18:37 10° ENE
Okean-O 4.5 01:14:23 10° SSW 01:18:15 29° W 01:22:08 10° NW
IRAS Rocket 4.3 01:15:01 10° NNE 01:20:39 69° ESE 01:26:15 10° S
Aureole 1 Rocket 2.3 01:18:39 10° SSW 01:21:58 78° WNW 01:24:58 10° NNE
Cosmos 2228 Rocket 4.3 01:21:19 16° SE 01:23:52 25° E 01:27:35 10° NE
Cosmos 2227 Rocket 2.5 01:21:22 10° NNW 01:27:00 67° WSW 01:32:27 11° S
Okean 1 4.0 01:26:46 17° SSE 01:29:23 36° E 01:33:05 10° NNE
Cosmos 1536 2.8 01:25:44 10° N 01:29:46 83° E 01:33:11 14° S
Cosmos 1980 Rocket 2.1 01:27:15 10° SSW 01:32:50 75° ESE 01:38:30 10° NNE
RESURS DK-1 2.7 01:29:51 10° S 01:33:44 42° ESE 01:37:38 10° NE
SL-4 R/B 2.2 01:31:15 10° NW 01:35:49 78° SW 01:38:30 22° SE
ASTRO E2 4.5 01:33:39 10° SW 01:36:04 16° SSW 01:36:58 15° S
ARGOS Delta rocket 4.2 01:31:30 10° N 01:37:01 82° WNW 01:42:22 10° SSW
Cosmos 1777 Rocket 4.4 01:32:58 11° S 01:37:34 41° ESE 01:42:28 10° NNE
Cosmos 1184 Rocket 2.7 01:35:33 10° SSW 01:38:33 73° W 01:41:34 10° N
H-2A R/B 3.4 01:35:18 10° N 01:39:06 39° WNW 01:42:56 10° SW
Spot 2 Rocket 4.4 01:36:15 18° ESE 01:39:08 32° ENE 01:43:36 10° N
Cosmos 1354 Rocket 4.0 01:33:56 10° S 01:39:09 71° ESE 01:44:27 10° NNE
SPOT 3 Rocket 3.8 01:38:06 19° SE 01:41:36 55° ENE 01:46:37 10° N
Cosmos 2322 Rocket 3.8 01:41:31 15° ESE 01:41:56 15° E 01:45:03 10° ENE
Cosmos 2369 3.8 01:37:25 10° SSW 01:43:03 79° WNW 01:48:45 10° NNE
Cosmos 1464 Rocket 4.1 01:40:15 10° S 01:46:28 81° W 01:52:39 10° N
ARIANE 5 R/B 4.4 01:46:14 15° E 01:48:01 19° ENE 01:51:11 10° NNE
Meteor 2-4 Rocket 4.5 01:46:27 21° SE 01:49:22 34° E 01:54:25 10° NNE
Cosmos 1697 Rocket 4.2 01:46:29 10° SW 01:51:46 39° WNW 01:57:05 10° N
Meteor 1-19 Rocket 4.1 01:46:54 13° S 01:51:49 68° E 01:57:11 10° NNE
Cosmos 389 Rocket 3.0 01:51:14 10° NNW 01:54:40 55° W 01:56:49 21° SSW
CZ-4B R/B 3.4 01:53:26 10° NNW 01:56:11 27° WNW 01:58:52 10° SW
Cosmos 1975 3.9 01:56:04 10° NNE 01:59:40 30° ENE 02:00:36 27° ESE
MetOp-B 4.2 01:56:39 19° S 02:00:31 79° WSW 02:05:55 10° NNW
Cosmos 1092 Rocket 4.2 01:56:53 10° N 02:02:53 51° ENE 02:06:04 27° SE
ATLAS 2AS CENTAUR R/B 3.0 01:55:16 10° SSW 02:03:07 89° ESE 02:10:47 10° NE
Cosmos 2297 Rocket 4.2 01:59:13 10° NW 02:03:20 21° W 02:07:27 10° SSW
Nadezhda 4 Rocket 3.9 01:57:14 10° N 02:03:30 89° W 02:07:53 20° S
Meteor 2-14 Rocket 4.4 01:58:48 10° N 02:04:55 80° E 02:08:48 24° SSE
GENESIS II 4.3 02:04:45 37° SSE 02:05:46 48° ESE 02:09:31 10° NE
Cosmos 1634 Rocket 4.3 02:03:53 25° SSE 02:07:10 48° E 02:13:04 10° NNE
Helios 1A Rocket 2.8 02:07:26 38° SSE 02:08:51 69° ENE 02:12:51 10° N
EXPRESS MD2 3.1 02:04:57 10° WNW 02:10:08 68° SW 02:10:54 48° SSE
Cosmos 1933 Rocket 4.5 02:07:13 10° NNW 02:11:30 46° W 02:14:37 17° SSW
Meteor 2-9 Rocket 4.2 02:08:48 10° N 02:14:34 88° W 02:17:43 27° S
ERS-1 Rocket 3.1 02:12:29 33° SE 02:14:36 59° ENE 02:19:33 10° N
Cosmos 1733 Rocket 4.1 02:14:15 10° NNE 02:18:13 31° ENE 02:18:59 29° E
CZ-2C R/B 3.8 02:15:46 10° NNE 02:20:32 67° ESE 02:22:29 35° S
SJ 16-02 2.1 02:16:40 10° SW 02:20:54 50° WNW 02:25:11 10° N
SL-16 R/B 2.4 02:18:47 32° SSE 02:20:58 47° ESE 02:26:23 10° NE
Cosmos 2026 Rocket 4.0 02:21:43 10° N 02:27:54 70° E 02:30:41 35° SSE
Timation 2 Rocket 4.4 02:21:47 10° NNW 02:28:18 63° WSW 02:32:04 27° S
NOSS 2-1 (E) 2.9 02:29:30 60° ENE 02:29:30 60° ENE 02:32:12 10° NE
Cosmos 1862 Rocket 4.1 02:28:51 40° ESE 02:29:13 40° E 02:33:25 10° NNE
ATLAS 3B R/B 3.5 02:23:41 10° NNW 02:30:48 48° NE 02:35:06 25° ESE
BREEZE M DEB (TANK) 4.2 02:29:44 10° WNW 02:34:23 85° NNE 02:47:28 19° ESE
Cosmos 1441 Rocket 4.3 02:35:54 30° ENE 02:35:54 30° ENE 02:38:30 10° NNE
Cosmos 1346 Rocket 2.7 02:36:33 64° SSE 02:37:04 78° E 02:41:05 10° NNE
Meteor 1-18 Rocket 4.4 02:34:06 21° SSW 02:37:59 73° W 02:43:38 10° N
Meteor 2-8 Rocket 4.3 02:37:05 33° S 02:40:02 80° E 02:46:08 10° N
Gblst 52 Del rocket 4.4 02:36:04 10° SW 02:42:56 68° SE 02:48:56 10° ENE
Resurs 01 Rocket 4.2 02:40:37 10° SW 02:43:03 15° W 02:45:30 10° WNW
SPOT 5 3.3 02:43:22 35° SSW 02:45:29 63° W 02:50:37 10° NNW
Terra 1.7 02:44:34 52° SSE 02:45:46 89° WSW 02:50:33 10° NNW
Cosmos 2360 Rocket 2.9 02:45:49 34° ESE 02:45:49 34° ESE 02:50:49 10° NE
Cosmos 2292 Rocket 3.5 02:45:15 10° NNW 02:47:45 45° WNW 02:47:45 45° WNW
Iridium 2 4.5 02:45:16 10° N 02:48:20 38° ENE 02:48:20 38° ENE
Cosmos 2263 Rocket 2.5 02:47:02 10° NNW 02:52:30 58° WSW 02:54:16 40° SSW
Cosmos 1378 4.4 02:52:06 29° WSW 02:53:10 36° WNW 02:56:35 10° N
ISS -3.1 02:50:14 10° NW 02:53:04 55° NNW 02:53:04 55° NNW
Meteor 2-15 4.4 02:52:59 35° SSW 02:55:43 84° W 03:01:49 10° N
Cosmos 990 Rocket 4.0 02:57:52 57° SE 02:58:33 63° ESE 03:03:44 10° NNE
Okean 1-7 4.0 03:07:49 34° ENE 03:07:49 34° ENE 03:11:08 10° NNE
Cosmos 2279 Rocket 3.9 03:07:07 43° S 03:09:22 86° W 03:15:37 10° N
Cosmos 1066 Rocket 4.1 03:10:46 56° SSE 03:12:00 77° E 03:17:42 10° NNE
Cosmos 1898 Rocket 3.6 03:12:30 55° ESE 03:12:36 55° ESE 03:17:47 10° NNE
Iridium 4 Rocket 4.2 03:08:51 10° NNE 03:13:02 35° E 03:13:02 35° E
Cosmos 1805 3.8 03:10:45 10° N 03:13:59 52° NE 03:13:59 52° NE
SL-24 R/B - RUBIN 2 3.8 03:13:47 10° NW 03:18:06 59° WSW 03:18:06 59° WSW
USA 215 3.2 03:17:31 10° NE 03:24:01 61° SE 03:25:35 48° S
ARIANE 5 R/B 3.4 03:23:46 40° WSW 03:24:08 41° W 03:28:24 10° NNW
ATLAS CENTAUR R/B 3.3 03:20:32 10° NNW 03:24:38 26° NE 03:25:48 24° ENE
Cosmos 2322 Rocket 2.3 03:23:15 40° SW 03:25:16 71° WNW 03:30:54 10° NNE
BREEZE-M DEB (TANK) 2.6 03:23:52 10° NW 03:26:21 71° N 03:26:21 71° N
Cosmos 1733 3.9 03:22:58 10° N 03:25:54 52° N 03:25:54 52° N
Cosmos 1766 4.3 03:26:17 10° N 03:29:11 39° NE 03:29:11 39° NE
Cosmos 2333 Rocket 2.7 03:31:12 44° E 03:31:12 44° E 03:36:06 10° NE
Cosmos 1844 Rocket 2.8 03:26:36 10° NNW 03:32:09 61° ENE 03:32:53 55° E
Cosmos 44 Rocket 4.3 03:32:22 10° NW 03:36:16 34° WSW 03:36:16 34° WSW
Meteor 1-4 Rocket 3.9 03:33:15 10° NNW 03:35:33 37° NW 03:35:33 37° NW
Cosmos 1703 Rocket 3.8 03:39:39 65° NNE 03:39:39 65° NNE 03:43:29 10° N
Meteor 1-23 Rocket 4.2 03:40:45 65° ESE 03:41:11 67° E 03:46:58 10° NNE
Cosmos 2219 Rocket 2.6 03:49:49 46° E 03:49:49 46° E 03:54:32 10° NE
Cosmos 372 Rocket 4.2 03:51:00 57° ENE 03:51:00 57° ENE 03:55:30 10° NNE
ERS-2 4.3 03:48:45 10° NNE 03:50:03 19° NE 03:50:03 19° NE
Cosmos 1844 3.6 03:50:46 10° NNW 03:56:36 81° ENE 03:57:04 75° ESE
Cosmos 1782 Rocket 4.1 03:52:44 10° N 03:56:17 54° NNE 03:56:17 54° NNE
USA 267 4.5 03:51:59 10° E 03:57:53 37° NNE 04:03:47 10° NW
Intercosmos 25 4.3 03:52:55 10° N 04:01:01 71° ENE 04:01:35 66° ESE
Cosmos 1726 3.6 04:00:02 10° NNW 04:02:17 35° NNW 04:02:17 35° NNW
SL-16 R/B 4.1 04:00:36 10° WSW 04:05:16 26° NW 04:10:00 10° N
Cosmos 1470 4.2 04:02:21 10° N 04:04:47 32° NNE 04:04:47 32° NNE
Cosmos 1908 Rocket 4.5 04:03:46 10° NNW 04:07:12 41° WNW 04:07:12 41° WNW
Cosmos 1300 Rocket 4.5 04:08:37 10° N 04:11:58 43° NE 04:11:58 43° NE
Cosmos 2242 Rocket 4.2 04:13:47 54° NW 04:13:47 54° NW 04:17:47 10° N
ALOS 2 3.2 04:14:10 54° NNE 04:14:10 54° NNE 04:17:45 10° N
Cosmos 1655 Rocket 4.2 04:12:06 10° NNW 04:18:09 55° W 04:18:59 51° WSW
Cosmos 2237 Rocket 3.9 04:20:21 20° E 04:20:21 20° E 04:23:32 10° NE
Okean 2 Rocket 4.5 04:16:37 10° NNE 04:20:07 32° ENE 04:20:07 32° ENE
ATLAS 3B R/B 3.5 04:14:37 10° NW 04:21:29 41° WSW 04:22:21 40° SW
COSMOS 2428 2.8 04:23:47 63° E 04:23:47 63° E 04:29:03 10° NNE
Cosmos 1937 Rocket 4.2 04:23:08 44° W 04:23:47 47° WNW 04:28:53 10° N
CZ-4C R/B 3.5 04:18:14 10° NNW 04:25:27 55° NE 04:29:39 30° ESE
Cosmos 2360 Rocket 3.5 04:27:32 26° W 04:29:43 34° WNW 04:34:51 10° N
NOSS 3-1 (C) 4.1 04:25:26 10° NNW 04:33:08 81° NE 04:36:05 47° SE
In-Cosmos 22 4.1 04:34:14 73° E 04:34:14 73° E 04:39:34 10° NNE
Cosmos 1867 3.5 04:35:35 79° NE 04:35:35 79° NE 04:40:45 10° NNE
Meteor 1-21 4.1 04:41:33 86° SSW 04:41:41 90° NW 04:47:32 10° N
Sich 1 Rocket 4.3 04:43:00 10° N 04:46:22 52° N 04:46:22 52° N
Nimbus 7 Rocket 4.4 04:42:11 10° NNE 04:48:02 67° ESE 04:48:07 67° ESE
Cosmos 2278 Rocket 3.2 04:47:31 10° N 04:52:49 39° ENE 04:54:16 33° E
SL-08 R/B 4.4 04:48:08 10° N 04:54:26 77° E 04:55:04 70° SE
Cosmos 1818 4.5 04:50:37 10° NW 04:54:36 37° W 04:54:36 37° W
Okean 1 Rocket 4.4 04:52:20 10° N 04:55:52 33° ENE 04:55:52 33° ENE
Cosmos 1461 4.1 04:56:06 10° NNW 04:58:53 41° NNW 04:58:53 41° NNW
Cosmos 371 Rocket 4.0 05:02:45 47° ENE 05:02:45 47° ENE 05:06:35 10° NNE
Lacrosse 5 3.8 05:04:31 19° E 05:04:31 19° E 05:06:37 10° ENE
ATLAS CENTAUR R/B 3.1 04:59:05 10° NW 05:01:48 29° WNW 05:01:48 29° WNW
USA 215 4.2 05:00:43 10° NE 05:06:51 45° NNW 05:12:52 11° W
SL-16 R/B 4.1 05:07:55 17° E 05:07:55 17° E 05:11:22 10° ENE
Cosmos 1417 Rocket 4.3 05:10:23 77° S 05:10:54 89° E 05:17:07 10° N
Cosmos 1980 3.8 05:11:35 61° E 05:11:35 61° E 05:16:55 10° NNE
ADEOS Rocket 3.1 05:13:15 55° W 05:13:15 55° W 05:18:56 10° NNW
Cosmos 1674 Rocket 4.3 05:14:23 51° N 05:14:23 51° N 05:17:39 10° N
Cosmos 2333 Rocket 3.8 05:13:10 22° W 05:15:11 27° NW 05:19:59 10° N
ASTEX 1 3.6 05:12:05 10° N 05:16:31 65° NW 05:16:31 65° NW
USA 308 3.9 05:27:57 43° NNE 05:27:57 43° NNE 05:30:55 10° NE
Cosmos 1378 Rocket 4.3 05:28:59 48° NNW 05:28:59 48° NNW 05:32:30 10° N
Cosmos 1300 4.3 05:25:55 10° N 05:28:26 33° NE 05:28:26 33° NE
Cosmos 1709 Rocket 4.2 05:26:14 10° N 05:32:19 62° E 05:33:27 53° SE
Cosmos 2219 Rocket 3.8 05:31:30 21° W 05:33:22 25° NW 05:37:58 10° N
Cosmos 2150 Rocket 4.0 05:33:55 70° WNW 05:33:55 70° WNW 05:38:58 10° NNE
Cosmos 2315 Rocket 4.1 05:33:04 56° SE 05:34:04 64° E 05:40:23 10° NNE
Cosmos 1386 Rocket 4.3 05:31:15 10° NNW 05:37:15 71° W 05:37:41 68° SW
Cosmos 494 Rocket 4.2 05:32:24 10° NNW 05:36:47 58° WNW 05:36:47 58° WNW
SL-14 R/B 4.5 05:39:35 40° N 05:39:35 40° N 05:42:11 10° N
Cosmos 1048 Rocket 4.4 05:33:45 10° NNW 05:38:01 51° WNW 05:38:01 51° WNW
S3M 4.0 05:38:12 61° SW 05:39:02 68° W 05:45:24 10° N
USA 267 3.1 05:38:54 54° SSE 05:40:31 78° SW 05:47:06 10° NW
CZ-2D R/B 3.4 05:39:32 10° NE 05:44:04 27° E 05:44:50 26° ESE
Cosmos 1125 Rocket 3.8 05:44:18 54° WNW 05:44:25 54° WNW 05:49:31 10° N
Meteor 1-16 Rocket 4.4 05:39:15 10° NNW 05:45:05 61° W 05:45:16 61° WSW
NOSS 2-2 (C) 4.4 05:41:22 10° NW 05:46:49 87° SW 05:48:31 54° SSE
Cosmos 1975 Rocket 3.7 05:48:04 49° ENE 05:48:04 49° ENE 05:51:58 10° NNE
USA 305 4.0 05:49:28 38° NNW 05:49:30 38° NNW 05:53:26 10° NE
USA 229 DEB 3.8 05:42:50 10° NW 05:50:19 77° WSW 05:52:46 48° SSE
Cosmos 1025 Rocket 3.9 05:50:45 41° ENE 05:50:45 41° ENE 05:54:26 10° NNE
USA 229 3.8 05:42:56 10° NW 05:50:25 78° WSW 05:52:53 48° SSE
Cosmos 839 Rocket 4.2 05:47:51 10° NNW 05:54:23 87° WSW 05:57:08 43° SSE
Meteor 2-5 Rocket 4.0 05:57:39 51° SE 05:58:36 57° E 06:04:09 10° NNE
Lacrosse 5 rocket 2.8 06:01:10 28° ENE 06:01:10 28° ENE 06:03:22 10° ENE
Cosmos 2237 Rocket 2.5 06:02:09 49° W 06:03:00 54° WNW 06:08:36 10° NNE
Cosmos 332 Rocket 3.8 06:04:18 70° WNW 06:04:18 70° WNW 06:08:59 10° NNE
Cosmos 1953 4.0 06:04:57 10° NNW 06:07:09 25° NW 06:07:09 25° NW
Resurs 1-4 Rocket 2.6 06:04:16 10° NNE 06:09:22 48° E 06:10:14 44° SE
CZ-4 R/B 4.4 06:06:00 10° NNE 06:10:28 45° E 06:10:45 44° ESE
GP-B 3.2 06:07:43 10° N 06:11:45 66° NW 06:11:45 66° NW
CZ-4C R/B 3.5 06:07:01 10° NW 06:14:04 40° WSW 06:14:45 39° SW
NOSS 3-1 (A) 4.5 06:09:29 10° NW 06:16:55 46° WSW 06:18:25 42° SW
Cosmos 1544 Rocket 4.2 06:15:50 10° N 06:20:06 47° E 06:20:48 43° ESE
Cosmos 1943 Rocket 2.8 06:14:32 10° NNW 06:20:07 54° ENE 06:23:41 22° SE
IDEFIX/ARIANE 42P 4.2 06:17:02 10° NE 06:21:26 26° E 06:23:29 21° SE
ADEOS II 3.3 06:18:02 10° NNE 06:22:45 33° E 06:24:27 27° SE
Thor Agena Rocket 3.6 06:20:03 10° N 06:25:17 64° WNW 06:26:03 57° WSW
MOS 1 Rocket 4.3 06:31:06 25° ESE 06:32:54 37° ENE 06:36:51 10° N
Cosmos 2278 Rocket 3.2 06:31:52 10° NW 06:36:05 29° W 06:36:05 29° W
NPP 3.6 06:39:07 10° NNE 06:44:32 83° ESE 06:46:05 49° S
Lacrosse 5 2.3 06:43:42 41° W 06:45:08 55° NW 06:50:10 10° NE
Cosmos 2084 Rocket 4.5 06:45:29 30° WNW 06:45:47 30° NW 06:49:11 10° NNE
ATLAS 5 CENTAUR R/B 4.0 06:40:54 10° NW 06:45:39 22° W 06:45:39 22° W
Cosmos 2154 Rocket 4.4 06:41:25 10° N 06:47:42 62° E 06:51:57 21° SSE
Cosmos 2369 Rocket 3.6 06:44:48 10° N 06:49:57 36° ENE 06:55:03 10° SE
SL-16 R/B 2.3 06:49:47 46° SW 06:51:23 66° WNW 06:57:03 10° NNE
Cosmos 1455 2.0 06:49:05 10° N 06:52:48 85° ENE 06:52:49 85° E
SME Rocket 3.9 06:58:11 36° W 06:58:11 36° W 07:02:13 10° NNW
AQUA 3.7 06:55:27 10° NNE 07:00:14 90° ENE 07:01:35 48° SSW
Cosmos 1269 Rocket 4.2 06:55:45 10° NNW 07:00:50 50° WSW 07:01:45 45° SW
Cosmos 1271 Rocket 3.3 06:57:56 10° N 07:01:43 55° E 07:03:04 34° SE
SL-16 R/B 2.4 07:01:09 30° S 07:04:24 75° WSW 07:10:40 10° NNW
Iridium 82 4.4 07:05:47 73° SSE 07:06:06 86° E 07:09:38 10° N
Cosmos 2228 3.9 07:02:06 10° N 07:06:18 46° ENE 07:09:09 19° SE
Cosmos 2074 Rocket 4.1 07:04:05 10° NNW 07:10:17 62° W 07:13:08 33° SSW
SAR-Lupe-2 3.6 07:11:32 10° N 07:15:03 57° WNW 07:15:21 55° W
Cosmos 1603 4.5 07:12:00 23° SSE 07:15:08 45° ESE 07:20:29 10° NE
Cosmos 1295 Rocket 4.5 07:09:11 10° N 07:15:33 87° W 07:19:56 21° S
Cosmos 1536 Rocket 3.7 07:16:40 45° SW 07:17:42 58° W 07:22:03 10° N
COSMOS 2455 2.9 07:18:09 33° SW 07:20:55 68° WNW 07:26:57 10° NNE
Cosmos 292 Rocket 3.9 07:20:54 39° SW 07:22:33 63° WNW 07:27:19 10° NNE
DNEPR-1 R/B 4.1 07:21:45 32° S 07:23:16 48° ESE 07:27:35 10° NE
CZ-2D R/B 2.9 07:19:15 10° N 07:24:09 37° WNW 07:26:09 27° WSW
Cosmos 2184 Rocket 4.3 07:20:36 10° NNW 07:26:32 47° W 07:29:21 29° SW
Cosmos 1610 Rocket 4.4 07:23:12 10° NNW 07:29:19 70° W 07:33:27 21° S
GPS 2-04 Rocket1 4.0 07:31:42 20° SSE 07:31:42 20° SSE 07:33:50 10° ESE
Cosmos 1328 4.3 07:31:01 23° SSE 07:33:15 55° E 07:37:09 10° NNE
MSX 3.8 07:30:47 10° NNE 07:36:35 85° WNW 07:40:21 23° SSW
Helios 1B rocket 3.7 07:34:00 10° NNE 07:37:45 35° E 07:41:04 12° SSE
Lacrosse 5 rocket 2.9 07:36:40 16° WNW 07:38:48 26° NNW 07:42:15 10° NNE
Cosmos 1606 Rocket 3.6 07:38:48 10° N 07:43:13 79° E 07:47:12 12° S
Cosmos 962 Rocket 4.4 07:37:14 10° N 07:43:23 89° W 07:49:30 10° S
OAO 2 Rocket 4.1 07:42:53 26° SSW 07:44:31 33° SSE 07:48:56 10° ESE
Cosmos 1943 3.2 07:41:37 24° SSW 07:45:10 90° SE 07:50:54 10° NNE
Cosmos 2181 Rocket 4.3 07:40:26 11° S 07:46:27 65° E 07:52:33 10° NNE
Cosmos 1703 3.9 07:45:42 30° WSW 07:46:56 39° WNW 07:50:38 10° N
Resurs 1-4 Rocket 3.6 07:44:52 10° NNW 07:48:49 22° WNW 07:51:19 16° W
EO 1 Del DPAF 4.0 07:48:23 10° N 07:51:32 31° WNW 07:52:35 26° WSW
Meteor 2-1 Rocket 4.2 07:47:21 10° N 07:53:08 88° W 07:58:44 10° S
Helios 1A 3.5 07:51:32 26° SSW 07:53:24 40° W 07:57:23 10° NNW
ARIANE 5 R/B 4.2 07:50:48 10° NE 07:55:12 30° E 07:59:32 10° SSE
NOSS 3-3 (A) 3.9 07:52:29 23° SW 07:56:09 71° NW 08:02:31 10° NNE
NOSS 3-3 (C) 3.9 07:52:35 23° SW 07:56:15 72° NW 08:02:37 10° NNE
CBERS-1 4.1 07:53:38 10° NNE 07:58:47 79° ESE 08:03:21 13° S
Lacrosse 4 Rocket 3.2 07:55:51 10° SSE 07:59:26 26° ESE 08:02:58 10° NE
IDEFIX/ARIANE 42P 3.3 07:56:14 10° N 08:01:04 38° WNW 08:04:17 19° SW
ADEOS II 3.1 07:57:45 10° N 08:02:19 31° WNW 08:05:23 17° WSW
Cosmos 1943 Rocket 3.4 07:59:16 10° NW 08:03:24 21° W 08:05:07 18° SW
Cosmos 2056 Rocket 3.8 07:59:06 13° S 08:03:36 67° ESE 08:08:50 10° NNE
BREEZE-M DEB (TANK) 3.7 08:02:27 22° SSW 08:04:15 48° SE 08:11:25 10° ENE
Cosmos 1408 3.2 08:01:10 11° S 08:04:35 55° E 08:08:08 10° NNE
FENGYUN 3A 4.2 08:00:22 10° NNE 08:05:41 58° E 08:10:59 10° S
Cosmos 1892 3.4 08:03:15 10° S 08:06:55 50° E 08:10:35 10° NNE
SL-19 R/B 4.4 08:02:51 10° NNE 08:08:57 81° WNW 08:14:16 12° SSW
ALOS 3.0 08:06:44 10° NNE 08:11:19 52° E 08:15:51 10° S
Cosmos 2263 4.2 08:06:13 10° NNW 08:11:53 69° WSW 08:17:33 10° SSE
IRS-1D 3.9 08:07:07 10° N 08:12:16 50° WNW 08:16:22 15° SW
Cosmos 2251 Rocket 4.0 08:10:19 10° NNW 08:15:14 41° WSW 08:20:10 10° S
Cosmos 1892 Rocket 3.7 08:13:50 15° SSW 08:17:27 58° W 08:21:53 10° N
Cosmos 1190 Rocket 4.2 08:13:47 10° NNW 08:19:06 79° ENE 08:24:24 10° SSE
Cosmos 1726 Rocket 3.8 08:18:00 10° NNW 08:22:15 49° W 08:26:27 10° SSW
Cosmos 2366 rocket 4.0 08:21:07 10° NNW 08:27:15 70° W 08:33:24 10° S
Lacrosse 5 4.1 08:25:43 10° WNW 08:29:06 17° NNW 08:32:31 10° NNE
CZ-2C R/B 2.6 08:24:20 10° NNE 08:29:27 79° ESE 08:34:24 10° S
Cosmos 2341 Rocket 4.4 08:25:27 10° NNW 08:31:28 44° W 08:37:27 10° SSW
PAYLOAD A 4.0 08:26:45 10° NNE 08:31:32 82° ESE 08:36:24 10° SSW
SL-8 Rocket 4.3 08:27:34 10° NNW 08:33:41 52° W 08:39:44 10° SSW
Cosmos 2369 Rocket 2.9 08:28:59 10° NW 08:33:50 31° WSW 08:38:42 10° SSW
IRS-P3 4.3 08:30:01 10° NNE 08:35:23 81° ESE 08:40:43 10° SSW
Cosmos 1656 Rocket 4.1 08:30:38 10° NW 08:35:36 38° WSW 08:40:33 10° S
SL-16 R/B 4.4 08:34:53 10° WNW 08:36:38 11° NW 08:38:25 10° NNW
Meteor 1-29 3.2 08:34:32 10° NNE 08:37:46 64° ESE 08:41:00 10° S
Cosmos 676 Rocket 4.5 08:32:32 10° NNW 08:37:52 70° ENE 08:43:10 10° SSE
BREEZE-M DEB (TANK) 3.4 08:44:04 10° W 08:47:53 34° NNW 08:50:01 10° NE
In-Cosmos 22 Rocket 4.3 08:42:48 10° SSW 08:48:36 77° W 08:54:28 10° N
Cosmos 1420 Rocket 4.2 08:44:43 10° SSW 08:49:48 59° WNW 08:54:58 10° NNE
SL-08 R/B 3.6 08:49:45 10° SSE 08:54:19 72° ENE 08:58:58 10° N
Meteor 1-27 4.3 08:50:27 10° N 08:56:14 83° W 09:01:53 10° S
DELTA 2 DEB (DPAF) 4.1 08:52:25 10° S 08:56:48 63° WSW 09:01:12 10° NNW
Cosmos 407 Rocket 4.3 08:53:22 10° NW 08:57:56 30° W 09:02:27 10° SSW
Cosmos 1869 3.2 08:55:06 10° N 08:59:01 82° W 09:02:53 10° S
Cosmos 2058 Rocket 3.9 08:56:36 10° NNW 09:00:29 32° W 09:04:21 10° SSW
CZ-3 R/B 4.0 08:52:53 10° W 09:29:00 51° SSW 09:38:24 10° SE
